GFSMA_sfc_temp_132.txt.gz
Temp
70 72 73 71 73 74 75 75 76 75 78 80 81 79 79 79 75 72 71 80 81 81 82 83 83 83 83 83 83 83 82 82 81 81 80 80 80 80 80 80 80 80 79
71 73 72 73 73 75 76 77 76 77 77 81 81 81 81 80 80 78 72 72 81 81 82 83 83 83 84 83 82 83 82 81 81 79 79 79 79 79 80 80 80 80 79
73 72 72 72 73 75 80 79 79 79 75 77 81 79 81 82 82 81 75 73 74 78 78 80 82 82 83 84 84 83 81 80 79 78 78 78 78 78 78 79 80 79 79
73 73 73 73 77 75 79 80 77 77 74 73 73 74 75 78 77 75 75 74 74 74 75 77 79 82 82 84 84 82 80 79 78 78 78 78 77 77 78 79 79 79 78
75 72 71 72 74 75 73 76 77 78 76 77 74 74 72 71 71 75 74 73 73 72 73 75 76 76 79 86 83 82 80 79 78 77 77 77 77 78 79 79 79 78 78
75 72 73 75 75 75 75 76 78 78 77 77 84 72 71 71 70 70 72 75 71 72 73 73 72 72 77 82 81 82 81 80 78 77 76 77 77 78 78 78 77 77 77
76 74 73 73 73 74 75 77 78 76 77 75 71 70 68 70 69 71 71 72 76 71 72 72 71 71 73 79 79 80 81 80 79 78 77 77 77 77 77 77 77 77 77
75 76 75 74 72 73 73 75 75 75 74 75 71 68 65 66 68 70 70 71 74 72 74 74 72 73 72 77 78 80 79 80 80 79 78 77 77 76 76 76 76 76 76
77 75 76 74 71 71 71 73 75 74 69 70 68 67 63 61 64 66 68 69 71 70 71 71 74 73 72 73 77 77 78 78 79 79 79 77 77 76 76 76 75 75 75
78 78 77 75 72 72 73 74 77 73 68 68 68 70 66 65 62 61 66 67 69 69 70 71 71 71 71 72 78 78 78 77 78 79 79 78 77 77 77 76 76 75 75
78 79 78 77 75 73 73 75 76 73 67 66 66 68 68 67 66 64 63 68 68 68 70 71 69 69 70 73 74 76 77 76 76 77 78 79 78 78 78 77 76 76 76
75 77 79 76 75 74 74 75 75 74 67 68 69 68 69 68 67 65 64 65 65 67 70 70 69 69 71 74 79 80 77 75 75 75 76 78 79 79 79 78 78 77 77
73 75 76 75 74 75 76 76 75 75 73 72 70 70 71 69 67 66 65 64 64 67 67 67 69 69 74 74 75 78 77 74 73 73 73 75 76 77 78 78 78 78 78
74 76 76 76 77 77 77 76 75 75 74 74 74 73 72 71 68 68 67 65 64 65 65 67 68 72 73 74 77 77 75 72 72 71 71 71 73 74 76 77 77 77 77
79 75 77 76 77 77 77 76 74 74 75 74 74 74 75 75 72 70 70 68 68 64 66 70 68 76 77 76 78 77 78 72 71 70 69 70 71 71 73 74 74 74 74
75 75 75 76 76 77 77 75 74 75 75 74 75 75 75 75 77 74 71 71 71 71 67 70 72 72 78 80 78 78 80 75 71 70 69 68 69 70 71 71 71 72 72
74 75 75 76 76 76 76 74 74 75 75 74 75 75 75 75 74 74 74 73 72 72 69 72 72 76 75 75 75 77 79 76 73 70 69 68 67 68 69 70 70 70 70
73 74 75 75 75 77 77 77 75 76 75 74 74 74 75 79 74 73 73 72 71 71 69 68 69 75 73 73 74 77 81 82 78 76 69 68 67 67 66 67 67 67 67
73 74 74 74 74 75 75 75 75 75 75 75 76 78 77 74 73 72 72 71 71 73 70 69 69 72 77 75 76 75 75 74 81 76 70 68 67 67 66 65 65 64 63
74 74 74 73 74 75 74 74 74 74 74 75 75 79 76 77 74 73 73 71 71 71 69 68 68 69 70 72 71 71 70 71 72 81 77 75 74 72 68 65 64 64 62
73 73 74 74 74 73 72 70 71 72 71 72 73 73 72 71 71 72 73 71 71 70 69 68 68 67 68 69 69 70 69 70 71 72 73 75 74 75 73 71 69 67 64
73 73 73 71 71 69 64 66 69 71 73 71 70 71 69 68 69 68 69 70 71 70 68 68 68 67 68 69 70 70 69 68 67 73 71 72 74 75 73 74 68 67 64
72 71 70 68 64 63 63 64 68 71 71 70 69 70 68 68 68 70 68 68 67 67 68 68 67 67 68 69 69 68 68 68 68 71 70 69 71 71 73 76 68 67 64
69 67 64 62 62 63 61 62 66 70 69 69 67 65 63 63 63 69 69 68 67 66 66 69 65 66 66 67 68 70 69 69 69 70 68 64 68 68 70 73 69 67 65
66 63 62 61 60 59 59 61 67 67 65 64 65 64 62 63 61 65 67 66 65 64 67 67 66 64 64 65 65 68 66 65 65 67 68 64 66 66 67 69 72 67 64
62 61 60 60 59 58 58 57 65 62 60 59 61 61 61 61 59 61 64 63 63 62 63 66 68 67 67 67 66 65 65 63 63 63 66 63 64 64 64 68 69 68 69

GFSMA_sfc_temp_138.txt.gz
Temp
71 72 73 74 75 75 75 77 77 78 78 79 79 79 79 77 76 74 73 78 80 80 80 81 82 82 83 83 83 82 81 80 79 79 79 79 80 80 80 80 80 79 80
73 73 73 75 75 76 77 77 78 77 76 78 78 79 79 77 76 76 75 78 79 79 80 81 81 82 83 83 83 81 80 79 78 79 80 79 79 79 80 80 80 80 78
74 73 73 74 74 75 77 78 78 77 75 77 77 78 78 78 78 77 76 76 77 79 80 80 80 81 82 83 82 81 80 78 78 78 78 78 78 78 79 80 80 79 79
74 73 72 74 74 76 76 76 77 76 73 73 73 74 74 76 77 77 77 76 76 77 77 79 79 81 82 83 82 82 80 78 78 77 78 78 78 78 78 79 79 79 78
75 73 74 74 76 76 76 77 76 76 74 73 74 72 73 73 74 78 76 76 75 76 77 77 78 80 82 82 82 81 81 79 78 78 78 78 78 78 78 79 78 78 78
75 75 74 74 75 76 76 77 74 73 72 72 77 73 72 73 73 73 74 77 75 76 76 75 74 77 79 80 80 80 81 80 79 78 78 77 77 78 78 77 77 77 77
76 74 74 74 75 75 76 77 75 73 72 72 72 72 72 73 74 73 74 75 75 76 77 75 75 75 78 78 78 79 79 80 80 79 78 77 77 76 76 76 77 77 77
76 77 76 74 74 75 76 75 77 72 72 71 71 69 70 72 73 73 73 74 73 74 77 76 76 75 76 77 78 79 78 79 80 79 78 77 76 76 76 76 76 76 76
77 77 76 74 75 74 75 76 75 74 71 71 71 71 67 67 67 71 73 72 73 72 76 75 76 76 76 76 77 78 78 77 80 79 78 77 76 76 76 76 75 75 75
77 76 77 76 76 75 75 76 75 74 73 71 70 71 70 70 69 70 72 72 72 74 73 74 74 76 76 76 77 77 77 76 78 79 78 77 77 76 76 76 76 75 75
76 78 77 77 77 76 76 77 74 72 71 71 70 71 71 69 68 68 70 71 73 73 74 74 75 76 76 78 77 78 77 76 76 77 78 78 78 78 77 77 76 76 76
75 76 78 77 76 76 76 76 75 75 73 72 71 71 71 72 71 69 69 68 68 72 73 74 74 75 77 78 80 78 77 76 75 75 76 77 78 78 78 78 77 77 77
74 75 76 76 75 76 76 76 76 76 74 74 74 73 73 72 71 69 69 68 69 71 72 75 75 75 78 79 80 78 77 74 74 73 73 75 76 77 78 78 78 78 78
74 76 76 76 77 77 77 76 76 76 76 76 76 75 74 73 71 71 71 71 71 69 71 75 76 77 77 81 81 77 79 73 73 71 71 72 73 74 76 76 76 76 77
75 75 76 76 76 77 77 76 76 77 77 77 77 76 76 76 73 71 71 72 73 70 71 77 74 78 77 79 80 81 80 72 71 70 69 70 71 72 73 74 74 74 74
74 76 76 75 76 76 76 76 76 76 76 77 78 77 77 77 77 76 74 73 73 73 71 75 75 77 78 83 79 81 80 75 70 69 68 68 69 70 71 71 71 71 72
74 74 75 73 75 75 76 75 75 76 75 76 76 76 76 77 77 77 76 75 75 73 74 76 74 78 78 79 80 81 82 82 79 69 69 68 67 68 69 69 69 69 70
74 74 74 75 75 76 76 75 75 77 75 75 76 76 76 79 76 76 76 75 74 75 73 73 74 76 78 78 78 78 82 84 83 74 69 68 67 66 66 66 66 66 67
74 74 73 73 74 74 75 75 75 76 76 76 76 76 77 76 75 76 75 75 75 76 74 73 74 75 77 77 78 78 78 78 84 76 72 69 68 67 66 65 63 62 62
74 74 73 74 74 75 75 76 76 76 75 77 77 77 77 75 76 75 75 75 74 75 73 74 74 74 73 75 74 74 76 77 78 81 77 72 70 69 67 66 66 65 61
74 74 73 74 74 74 75 74 75 75 75 75 76 76 75 74 70 73 76 74 73 73 73 73 72 72 73 74 73 74 73 75 76 76 79 78 78 77 73 69 69 65 62
72 73 73 73 71 72 64 66 71 73 74 74 74 73 72 71 70 67 68 67 72 73 72 72 71 71 71 73 73 73 72 72 72 78 75 76 77 77 74 71 65 64 62
70 69 68 69 67 66 62 65 66 69 73 73 72 71 71 71 70 71 66 66 66 65 67 73 71 71 71 73 71 71 72 72 71 71 73 74 76 75 75 72 64 63 62
68 68 66 65 65 64 60 62 65 66 70 70 70 69 68 67 69 70 69 69 68 68 69 72 67 67 68 70 70 73 72 72 73 70 67 71 72 73 73 69 64 62 61
66 65 64 63 62 61 57 59 64 68 67 66 65 64 65 66 64 65 69 67 67 67 64 63 62 62 63 63 65 73 69 72 71 69 64 67 70 71 73 70 70 62 60
60 59 58 58 57 57 56 57 64 65 62 61 62 62 60 62 59 60 67 67 65 65 66 66 66 65 64 64 63 64 66 67 65 66 64 65 65 65 69 71 68 67 67

GFSMA_sfc_temp_141.txt.gz
Temp
84 86 85 87 88 90 89 88 88 87 87 89 91 91 93 91 88 89 93 80 80 80 81 82 83 83 84 83 82 81 81 80 79 79 79 80 81 81 81 81 80 80 80
85 86 86 88 89 90 90 89 87 89 89 91 90 92 92 93 90 87 84 88 80 80 80 81 81 82 84 83 82 81 80 80 79 79 80 80 80 80 81 81 80 80 79
84 83 86 87 87 88 88 89 87 88 91 92 89 90 92 88 89 87 87 85 85 81 79 80 81 82 83 83 83 81 80 78 78 78 78 78 78 78 80 80 80 80 79
83 83 86 87 87 89 89 89 89 88 89 90 89 88 87 87 86 86 85 86 83 88 84 79 79 81 83 82 82 81 80 79 78 79 78 79 78 78 79 80 79 79 78
84 84 86 85 86 88 89 89 88 88 87 89 90 89 87 88 86 88 82 84 86 87 87 81 78 79 82 82 82 81 80 80 79 79 79 79 79 79 79 79 79 78 77
85 85 86 85 88 89 89 88 85 86 87 87 91 88 88 89 88 88 87 82 83 82 87 83 83 85 79 81 81 81 81 80 79 79 78 78 78 78 78 78 77 78 77
85 85 88 87 87 87 86 85 85 83 86 85 85 89 89 89 87 87 87 86 81 79 88 86 83 86 88 80 79 80 81 81 80 79 78 77 77 77 77 77 77 77 76
85 87 84 85 84 88 85 86 85 87 86 84 83 84 84 87 88 87 83 85 84 89 90 87 85 83 86 88 83 79 79 80 80 79 78 77 77 76 76 76 76 76 76
86 85 84 85 85 87 88 85 86 82 86 84 80 83 83 82 83 86 83 86 84 89 90 87 86 85 85 87 86 84 78 78 80 79 78 77 77 76 76 76 76 76 76
86 86 86 85 85 88 84 85 85 85 83 83 84 84 82 81 82 84 86 86 86 89 86 89 87 87 87 89 83 78 77 77 79 79 78 78 77 77 77 76 76 76 75
85 86 86 86 86 89 86 85 82 82 85 84 84 84 81 84 81 83 83 85 89 90 90 89 89 89 89 89 90 82 77 76 77 78 78 78 78 78 78 77 77 76 76
87 85 86 85 85 86 86 87 84 83 84 84 85 83 84 84 84 84 85 83 83 89 90 90 89 89 91 92 87 79 77 76 76 76 76 77 78 78 78 78 78 77 77
86 86 84 84 83 84 85 85 85 85 84 85 82 85 85 86 85 84 84 84 84 87 89 92 90 90 93 93 90 80 77 75 75 75 75 76 77 78 78 78 78 78 78
87 85 85 85 85 85 86 85 87 88 86 87 84 84 87 88 86 85 84 83 85 88 88 83 91 91 91 91 84 78 86 73 73 73 73 73 74 76 76 77 77 77 77
86 84 85 85 85 85 85 84 87 85 85 85 85 85 87 88 87 86 85 84 83 82 85 88 87 88 89 91 84 92 90 71 72 72 71 71 71 73 74 75 74 74 75
83 83 84 85 85 85 85 84 85 85 84 87 85 84 85 89 87 88 87 87 84 84 82 89 88 87 88 93 86 90 87 79 72 71 70 69 70 71 71 72 72 72 72
83 83 84 84 84 84 85 83 83 84 84 84 84 84 84 84 87 87 85 88 86 84 83 87 88 88 86 87 88 90 91 91 87 71 70 69 68 68 69 70 70 70 71
83 83 84 84 83 84 84 84 84 87 84 83 84 83 84 88 84 84 85 82 85 84 84 80 82 87 86 86 85 86 91 93 91 71 69 68 68 67 66 66 66 66 67
82 83 81 82 83 83 82 84 83 85 85 84 84 83 84 84 81 83 84 85 87 86 85 84 85 87 88 87 87 86 86 86 92 73 69 68 67 67 66 64 64 62 62
81 81 81 80 82 83 83 83 83 82 84 85 85 86 85 86 84 82 83 82 84 83 84 84 84 84 85 84 86 85 85 87 86 91 77 75 74 70 68 66 64 63 60
80 80 80 79 80 80 80 80 82 82 83 83 84 85 85 79 71 74 81 81 80 80 84 80 82 84 85 85 81 85 85 85 83 86 86 87 85 84 79 71 71 64 62
80 78 78 79 78 75 64 66 69 75 79 81 81 82 82 75 76 68 68 69 75 79 78 79 84 82 80 82 84 83 84 81 75 83 85 82 84 79 78 74 64 63 61
78 77 76 76 75 71 63 64 66 69 71 76 77 78 77 78 75 79 67 67 67 66 68 79 78 79 79 81 79 78 79 80 79 79 82 77 76 76 77 73 63 62 60
73 75 75 74 74 69 59 60 64 72 68 71 75 76 74 72 71 71 72 73 75 76 77 83 77 76 77 79 78 82 77 76 75 79 75 73 79 73 74 70 62 61 59
69 70 70 71 71 71 57 57 64 72 69 69 67 65 68 68 64 65 70 68 70 71 65 63 62 62 62 63 69 81 80 74 73 76 73 78 78 73 73 76 72 61 59
63 65 63 63 57 63 55 56 62 71 70 66 67 63 59 59 58 61 69 69 66 71 74 73 73 70 69 69 66 72 79 81 80 75 69 74 77 77 72 72 76 75 74

GFSMA_sfc_temp_147.txt.gz
Temp
94 94 79 90 96 100 99 98 98 99 99 100 101 100 102 99 99 99 97 82 81 81 82 83 83 84 84 83 82 81 81 80 80 80 80 81 83 82 81 81 81 80 80
91 96 79 97 99 101 100 99 96 98 99 101 99 99 98 99 96 95 99 89 82 81 81 83 83 83 83 83 82 81 81 81 81 80 80 80 81 83 82 81 81 81 80
93 89 95 94 94 97 96 96 96 98 101 103 97 99 101 97 97 94 95 96 81 81 81 81 81 83 83 83 82 81 81 81 81 80 80 80 80 81 82 81 81 80 80
92 93 92 91 98 99 100 99 99 99 101 101 99 100 99 99 97 95 89 94 83 93 84 82 81 82 83 83 82 82 81 80 80 80 80 80 80 81 81 81 81 80 79
93 95 87 96 80 98 100 100 99 98 97 99 100 100 99 99 98 99 92 90 90 91 96 81 81 82 83 82 82 82 81 80 79 79 79 80 80 80 81 80 80 78 78
93 92 95 94 82 87 97 96 92 96 97 96 100 100 99 99 97 96 95 93 96 94 96 92 94 88 82 81 81 82 81 80 79 79 78 78 78 79 78 78 78 78 78
93 93 95 96 95 94 93 94 96 93 97 95 93 97 97 97 96 95 95 96 93 95 96 94 94 94 86 80 80 81 81 81 80 79 78 78 78 77 77 76 76 77 77
93 92 91 95 92 91 91 91 91 93 96 93 90 91 90 75 96 98 94 95 92 98 98 93 92 91 94 92 84 80 81 80 80 79 78 78 77 77 77 76 76 77 77
94 93 92 90 93 88 89 91 91 89 91 94 90 89 87 85 89 95 93 94 92 96 96 94 93 92 94 92 86 82 80 80 80 79 79 78 77 77 77 77 76 76 76
93 94 93 93 91 94 91 92 93 91 89 91 94 96 92 88 85 75 88 91 93 94 93 85 93 92 95 94 83 80 80 79 79 79 79 78 78 78 77 77 77 77 76
93 94 94 93 92 94 91 91 90 89 93 91 91 92 92 94 92 89 67 88 91 95 87 96 97 78 93 97 92 80 78 78 78 79 79 79 78 78 78 78 78 77 77
93 92 94 92 92 91 92 92 90 90 89 89 91 88 92 91 90 83 79 81 69 91 95 86 93 71 72 94 88 78 78 77 77 78 78 79 79 79 79 79 78 78 78
92 89 91 90 92 90 91 91 90 90 92 89 88 91 85 93 94 94 90 85 91 79 93 87 99 82 81 86 90 84 77 77 76 76 77 78 79 79 79 79 79 79 79
87 91 92 93 92 92 92 91 92 93 90 92 90 89 92 93 96 92 91 87 88 90 76 77 97 95 75 97 88 82 81 75 76 76 76 77 77 78 78 78 78 78 78
92 94 93 92 92 92 91 90 92 92 92 91 91 90 92 97 98 96 95 95 90 84 87 76 87 83 71 74 88 92 88 73 75 75 75 76 75 76 77 78 77 76 76
91 91 92 91 91 91 91 90 91 91 89 91 93 90 89 94 94 96 96 95 94 86 85 94 93 87 82 75 91 93 84 76 73 74 73 72 73 73 74 75 75 75 75
89 89 88 88 90 88 90 89 89 88 89 89 90 89 89 90 92 93 93 95 90 92 86 91 77 91 90 90 92 92 74 75 75 70 69 69 68 69 69 69 70 71 72
89 88 89 89 89 90 87 89 87 90 89 87 85 90 89 94 88 89 92 87 90 90 89 83 89 92 89 90 91 90 92 80 82 70 67 66 65 64 64 64 64 64 67
89 89 88 87 87 87 88 87 88 88 88 85 86 85 88 89 87 89 88 89 87 80 86 81 87 88 93 86 89 88 91 83 85 70 67 66 65 64 63 62 61 60 61
87 86 86 87 88 88 90 89 86 87 89 91 89 85 86 85 86 88 88 87 89 88 84 89 85 85 89 90 91 89 81 79 82 88 78 76 72 66 65 63 63 61 59
85 85 83 85 86 88 89 88 89 89 87 88 90 90 90 82 73 75 87 83 84 86 82 80 79 80 76 76 78 83 85 90 87 80 79 77 85 82 76 69 68 62 60
84 84 84 85 82 79 66 68 72 86 84 83 85 89 90 80 77 71 72 72 73 80 81 82 84 79 79 86 83 88 83 81 81 89 81 82 84 78 76 71 62 61 60
76 81 83 84 83 72 62 63 66 80 84 84 83 80 85 87 80 84 69 68 70 70 71 77 78 79 78 82 83 82 81 80 77 83 84 76 79 79 77 68 62 60 60
72 71 73 77 76 67 60 60 62 74 84 84 82 82 80 79 74 79 83 83 79 76 75 81 74 71 77 78 81 84 79 79 82 84 81 75 81 78 76 71 62 61 60
67 67 67 65 65 67 59 58 62 79 81 78 78 79 79 79 65 67 76 72 68 65 64 63 64 64 65 66 71 81 76 74 72 71 73 74 78 78 79 76 69 62 59
66 64 62 63 60 64 57 56 59 73 82 79 74 71 60 61 60 62 78 75 72 71 70 66 67 66 70 69 69 74 79 78 74 74 71 74 80 81 76 79 75 70 69